Deer Park, WA
on Monday, February 4, 2013

Monday
Previous Day Next Day
Daily Summary
 ActualAverageRecord
Temperature
Mean Temperature °F 29°F  
Max Temperature 36°F 37°F 46°F (2005)
Min Temperature 24°F 22°F 3°F (2014)
Degree Days
Heating Degree Days 35 36  
Month to date heating degree days 136 144  
Since 1 July heating degree days 4244 4540  
Cooling Degree Days 0 0  
Month to date cooling degree days 0 0  
Year to date cooling degree days 0 0  
Moisture
Dew Point 30°F   
Average Humidity 95    
Maximum Humidity 100    
Minimum Humidity 89    
Precipitation
Precipitation 0.00 in 0.07 in 0.24 in (2001)
Month to date precipitation 0.00 0.28  
Year to date precipitation 1.50 2.91  
Wind
Wind Speed 4 mph   
Max Wind Speed 12 mph   
Max Gust Speed 14 mph   
Visibility 4 miles   
Events Fog   

Key: T is trace of precipitation, MM is missing value
Source: NWS Daily Summary
Time(PST)TemperatureDew PointHumidity Pressure Visibility Wind DirectionWind SpeedGust SpeedPrecipitationEvents Conditions
12:04 AM 32.0°F 32.0°F 100% 30.08 in 1.2 miles Calm Calm - N/A   Overcast
12:13 AM 32.0°F 32.0°F 100% 30.08 in 0.5 miles Calm Calm - N/A Fog Fog
12:53 AM 32.0°F 32.0°F 100% 30.14 in 0.2 miles SSE 3.5 mph - N/A Fog Fog
3:16 AM 32.0°F 32.0°F 100% 30.08 in 2.0 miles Calm Calm - N/A   Overcast
3:23 AM 32.0°F 32.0°F 100% 30.08 in 4.0 miles SSW 4.6 mph - N/A   Overcast
3:41 AM 32.0°F 32.0°F 100% 30.08 in 5.0 miles SSW 4.6 mph - N/A   Overcast
3:53 AM 32.0°F 32.0°F 100% 30.15 in 5.0 miles SW 5.8 mph - N/A   Overcast
4:40 AM 32.0°F 32.0°F 100% 30.08 in 4.0 miles SSW 3.5 mph - N/A   Overcast
4:53 AM 32.0°F 32.0°F 100% 30.13 in 5.0 miles South 4.6 mph - N/A   Overcast
5:15 AM 32.0°F 32.0°F 100% 30.07 in 3.0 miles South 3.5 mph - N/A   Overcast
5:53 AM 32.0°F 30.9°F 96% 30.12 in 5.0 miles SSW 6.9 mph - N/A   Overcast
6:53 AM 32.0°F 30.9°F 96% 30.13 in 4.0 miles SSE 3.5 mph - N/A   Overcast
7:53 AM 32.0°F 30.9°F 96% 30.15 in 5.0 miles SSW 6.9 mph - N/A   Overcast
8:53 AM 30.9°F 30.9°F 100% 30.15 in 2.0 miles SW 5.8 mph - N/A   Overcast
9:00 AM 30.2°F 30.2°F 100% 30.10 in 1.8 miles WSW 5.8 mph - N/A   Overcast
9:37 AM 32.0°F 30.2°F 93% 30.09 in 2.5 miles SSW 6.9 mph - N/A   Overcast
9:44 AM 32.0°F 30.2°F 93% 30.09 in 3.0 miles SW 5.8 mph - N/A   Overcast
9:53 AM 32.0°F 32.0°F 100% 30.16 in 3.0 miles SW 3.5 mph - N/A   Overcast
10:53 AM 34.0°F 32.0°F 92% 30.15 in 6.0 miles South 5.8 mph - N/A   Overcast
11:48 AM 35.6°F 32.0°F 87% 30.07 in 8.0 miles SSW 10.4 mph - N/A   Overcast
11:53 AM 35.1°F 32.0°F 89% 30.13 in 9.0 miles SSW 10.4 mph - N/A   Overcast
12:18 PM 35.6°F 32.0°F 87% 30.07 in 10.0 miles Calm Calm - N/A   Overcast
12:53 PM 35.1°F 32.0°F 89% 30.12 in 10.0 miles South 5.8 mph - N/A   Overcast
1:53 PM 36.0°F 32.0°F 86% 30.10 in 10.0 miles SSW 8.1 mph - N/A   Overcast
2:53 PM 36.0°F 32.0°F 86% 30.11 in 10.0 miles SSW 8.1 mph - N/A   Overcast
3:53 PM 35.1°F 32.0°F 89% 30.10 in 10.0 miles SSW 5.8 mph - N/A   Overcast
4:53 PM 34.0°F 32.0°F 92% 30.08 in 10.0 miles NNW 3.5 mph - N/A   Mostly Cloudy
5:05 PM 33.8°F 32.0°F 93% 30.02 in 9.0 miles NW 3.5 mph - N/A   Scattered Clouds
5:53 PM 30.0°F 28.9°F 96% 30.07 in 6.0 miles NNW 3.5 mph - N/A   Partly Cloudy
6:53 PM 28.9°F 27.0°F 92% 30.08 in 4.0 miles Calm Calm - N/A   Clear
7:49 PM 28.4°F 26.6°F 93% 30.01 in 1.8 miles Calm Calm - N/A   Clear
7:53 PM 27.0°F 26.1°F 96% 30.08 in 1.0 miles Calm Calm - N/A   Clear
8:00 PM 26.6°F 26.6°F 100% 30.01 in 0.5 miles Calm Calm - N/A Fog Light Freezing Fog
8:15 PM 26.6°F 26.6°F 100% 30.02 in 1.0 miles Calm Calm - N/A   Mist
8:22 PM 24.8°F 23.0°F 93% 30.02 in 0.2 miles Calm Calm - N/A Fog Light Freezing Fog
8:53 PM 26.1°F 25.0°F 96% 30.07 in 0.5 miles Calm Calm - N/A Fog Light Freezing Fog
9:22 PM 26.6°F 26.6°F 100% 29.99 in 1.2 miles ENE 3.5 mph - N/A   Partly Cloudy
9:26 PM 26.6°F 24.8°F 93% 29.99 in 3.0 miles ENE 4.6 mph - N/A   Partly Cloudy
9:53 PM 28.0°F 28.0°F 100% 30.06 in 6.0 miles Calm Calm - N/A   Clear
10:53 PM 28.0°F 27.0°F 96% 30.04 in 5.0 miles NNW 3.5 mph - N/A   Mostly Cloudy
11:53 PM 28.9°F 28.9°F 100% 30.03 in 5.0 miles Calm Calm - N/A   Partly Cloudy
Moon Phase
Feb. 04 Feb. 10 Feb. 17 Feb. 25 Mar. 04
Sunrise:07:12 AM (PST) Moon Rise:01:59 AM (PST)2/4
Sunset:04:55 PM (PST) Moon Set:11:15 AM (PST)2/4

Copyright © 2014 The Weather Underground, Inc.